Location: Nebula Knoll Observatory
(43.6666°N, 71.0000°W)
Time: 09:45:12
(UTC-04:00)

Cosmos 1782 - Visible Passes

Search period start: 23 August 2017 00:00
Search period end: 02 September 2017 00:00
Orbit: 538 x 555 km, 82.5° (Epoch: 23 August)

Date Brightness Start Highest point End Pass type
(mag) Time Alt. Az. Time Alt. Az. Time Alt. Az.
25 Aug 5.9 05:26:01 10° SE 05:28:31 16° E 05:31:01 10° NE visible
26 Aug 5.9 05:20:27 10° SE 05:23:04 17° E 05:25:43 10° NE visible
27 Aug 5.8 05:14:54 10° SE 05:17:39 18° E 05:20:24 10° NE visible
28 Aug 5.8 05:09:20 10° SE 05:12:12 19° E 05:15:05 10° NE visible
29 Aug 5.7 05:03:48 10° SE 05:06:47 20° E 05:09:45 10° NE visible
30 Aug 5.5 04:58:16 10° SE 05:01:20 22° E 05:04:25 10° NE visible
31 Aug 5.4 04:52:45 10° SE 04:55:54 23° E 04:59:04 10° NE visible
01 Sep 5.2 04:47:14 10° SE 04:50:28 24° E 04:53:42 10° NE visible
